STARLINK-1334, 45556

Orbit data source: Space-Track

STARLINK-1334, 45556 is a payload satellite owned by SpaceX/Seattle (US) in LEO that was launched on Wed, 22 Apr 2020 UTC via an FALCON 9 launch vehicle from the Air Force Eastern Test Range (AFETR). Payloads include a variety of satellites, spacecraft, and rockets equipped with specific instruments for various scientific and technological missions. These include communications satellites like Starlink; space stations such as the ISS; scientific satellites like the Hubble; Earth observation satellites from companies like Planet Labs, Umbra, and HawkEye 360; GPS; miniature CubeSats for education and research; and military/defense satellites.

Loading next visibility...
STARLINK-1334 details
Identifier
45556, 2020-025AB
Orbit
LEO
Last TLE update1 day ago
Origin
Flag of USSpaceX/Seattle (US)
ManufacturerSpaceX/Seattle
MissionPartially operational Commercial Communications
Bus & MotorSTARLINK, Unknown motor
Mass260 kg wet, ~248 kg dry
Launch date (UTC)
2020-04-22 (5 years ago)
Launch vehicle
FALCON 9
Launch site
Air Force Eastern Test Range (AFETR)
Object type
Payload
Rocket body
Debris
Shape & HBRBox + 1 Pan, 8.86 m
Radar Cross Section13.562 m², Large (>1 m²)

Expand to show TLE details & history

TLE from 1 day ago
0 STARLINK-1334
1 45556U 20025AB  24360.13440593  .00000840  00000-0  33111-4 0  9993
2 45556  53.0537 255.3410 0001149  93.5163 266.5971 15.37330401259180
Epoch: 2024-12-25T03:13Z
Definitive object data (Epoch: 2024-12-25T03:13:32.672Z)
Latitude-0.00001°
Longitude112.82235°
Altitude454.945 km
Speed7.641 km/s
True Right ascension17h 01m 21s
True Declination0° 00' 00"
Sunlit
Object was in daylight at TLE epoch
Visualization TLE readout
Latitude-36.06079°
Longitude-40.49484°
Altitude466.037 km
Speed7.633 km/s
Apparent Right ascension03h 11m 38s
Apparent Declination-57° 10' 27"
Sunlit
Object is in full shadow
Visualization observer readout
Local Sidereal Time10:46:13
Azimuth224.518° SW
Elevation-44.908°
Doppler factor1
Orbital elements
Apogee altitude455.067 km
Perigee altitude453.497 km
Semi-major axis6,832.419 km
Eccentricity0.0001149
Inclination53.0537°
RAAN255.341°
Arg. of periapsis93.5163°
True anomaly266.58396°
Mean anomaly266.5971°
Eccentric anomaly266.59053°
Mean motion3.8431 °/min
BSTAR0.000033111
Orbital period93.67 mins
Loading maneuver chart data...
Loading historical data...
Loading historical data...
Loading historical data...
Loading historical data...
Loading historical data...
Loading historical data...
Loading historical data...

STARLINK-1334 Visibility forecast

Observer location: undefined°, undefined

Span
Click to sort rows by Start time (UTC) header in descending order
Start Az.
Max El. time (UTC)
Max El. Az.
Max El.
End time (UTC)
End Az.
5 mins2024-12-26 19:59:53.074Z247.885° W2024-12-26 20:01:53.074Z298.284° NW39.589°2024-12-26 20:04:53.074Z40.684° NE
5 mins2024-12-27 02:32:53.074Z303.649° NW2024-12-27 02:34:53.074Z272.811° WNW41.401°2024-12-27 02:37:53.074Z139.981° SSE
|